| time (UTC) | temp F | wind direction | speed MPH | gust MPH | rain 1hr in | rain 24hr in | rain mn in | humidity % | barometer mb |
| 20260507183032 | 50 | 9 | 1.0 | 5.0 | 0.00 | 0.00 | 0.00 | 70 | 1017.6 |
| 20260507181537 | 51 | 0 | 0.0 | 7.0 | 0.00 | 0.00 | 0.00 | 72 | 1017.5 |
| 20260507180039 | 50 | 0 | 0.0 | 4.0 | 0.00 | 0.00 | 0.00 | 74 | 1017.3 |
| 20260507174540 | 49 | 54 | 0.0 | 6.0 | 0.00 | 0.00 | 0.00 | 74 | 1017.2 |
| 20260507173036 | 50 | 19 | 1.0 | 5.0 | 0.00 | 0.00 | 0.00 | 73 | 1017.3 |
| 20260507171536 | 51 | 13 | 1.0 | 8.0 | 0.00 | 0.00 | 0.00 | 72 | 1017.2 |
| 20260507170045 | 52 | 0 | 1.0 | 5.0 | 0.00 | 0.00 | 0.00 | 71 | 1017.0 |
| 20260507164536 | 52 | 316 | 2.0 | 8.0 | 0.00 | 0.00 | 0.00 | 70 | 1017.0 |
| 20260507163039 | 52 | 296 | 2.0 | 8.0 | 0.00 | 0.00 | 0.00 | 69 | 1017.0 |
| 20260507161536 | 52 | 14 | 3.0 | 9.0 | 0.00 | 0.00 | 0.00 | 65 | 1016.8 |
| 20260507160034 | 53 | 74 | 4.0 | 10.0 | 0.00 | 0.00 | 0.00 | 65 | 1016.7 |
| 20260507154538 | 53 | 65 | 2.0 | 9.0 | 0.00 | 0.00 | 0.00 | 65 | 1016.7 |
| 20260507153043 | 53 | 69 | 2.0 | 10.0 | 0.00 | 0.00 | 0.00 | 63 | 1016.6 |
| 20260507151535 | 54 | 13 | 2.0 | 9.0 | 0.00 | 0.00 | 0.00 | 66 | 1016.5 |
| 20260507150039 | 55 | 33 | 2.0 | 8.0 | 0.00 | 0.00 | 0.00 | 65 | 1016.4 |
| 20260507144534 | 55 | 94 | 2.0 | 11.0 | 0.00 | 0.00 | 0.00 | 65 | 1016.2 |
| 20260507143037 | 54 | 9 | 3.0 | 8.0 | 0.00 | 0.00 | 0.00 | 66 | 1016.3 |
| 20260507141537 | 54 | 351 | 2.0 | 10.0 | 0.00 | 0.00 | 0.00 | 66 | 1016.3 |
| 20260507140034 | 53 | 0 | 1.0 | 11.0 | 0.00 | 0.00 | 0.00 | 67 | 1016.3 |
| 20260507134542 | 54 | 295 | 4.0 | 11.0 | 0.00 | 0.01 | 0.00 | 66 | 1016.2 |
| 20260507133036 | 54 | 352 | 2.0 | 9.0 | 0.00 | 0.01 | 0.00 | 65 | 1016.1 |
| 20260507131551 | 54 | 103 | 3.0 | 12.0 | 0.00 | 0.01 | 0.00 | 65 | 1016.1 |
| 20260507130034 | 54 | 69 | 1.0 | 7.0 | 0.00 | 0.01 | 0.00 | 66 | 1016.0 |
| 20260507124535 | 53 | 322 | 2.0 | 9.0 | 0.00 | 0.06 | 0.00 | 66 | 1015.8 |
| 20260507123041 | 53 | 302 | 5.0 | 14.0 | 0.00 | 0.06 | 0.00 | 64 | 1015.7 |
| 20260507121539 | 53 | 5 | 3.0 | 11.0 | 0.00 | 0.06 | 0.00 | 65 | 1015.7 |
| 20260507120041 | 54 | 5 | 3.0 | 10.0 | 0.00 | 0.06 | 0.00 | 65 | 1015.6 |
| 20260507114533 | 54 | 86 | 3.0 | 10.0 | 0.00 | 0.14 | 0.00 | 63 | 1015.5 |
| 20260507113039 | 54 | 304 | 3.0 | 9.0 | 0.00 | 0.14 | 0.00 | 60 | 1015.4 |
| 20260507111538 | 55 | 352 | 4.0 | 10.0 | 0.00 | 0.14 | 0.00 | 58 | 1015.4 |
| 20260507110036 | 56 | 12 | 3.0 | 13.0 | 0.00 | 0.14 | 0.00 | 59 | 1015.3 |
| 20260507104536 | 56 | 115 | 3.0 | 13.0 | 0.00 | 0.24 | 0.00 | 58 | 1015.2 |
| 20260507103035 | 57 | 92 | 3.0 | 13.0 | 0.00 | 0.24 | 0.00 | 56 | 1014.9 |
| 20260507101541 | 55 | 329 | 3.0 | 14.0 | 0.00 | 0.24 | 0.00 | 58 | 1014.9 |
| 20260507100041 | 55 | 323 | 4.0 | 15.0 | 0.00 | 0.24 | 0.00 | 57 | 1014.7 |
| 20260507094539 | 55 | 49 | 4.0 | 14.0 | 0.00 | 0.29 | 0.00 | 60 | 1014.7 |
| 20260507093035 | 53 | 58 | 3.0 | 12.0 | 0.00 | 0.29 | 0.00 | 63 | 1014.6 |
| 20260507091549 | 52 | 65 | 5.0 | 12.0 | 0.00 | 0.29 | 0.00 | 68 | 1014.5 |
| 20260507090040 | 52 | 0 | 3.0 | 12.0 | 0.00 | 0.29 | 0.00 | 70 | 1014.6 |
| 20260507084538 | 52 | 44 | 3.0 | 10.0 | 0.00 | 0.33 | 0.00 | 73 | 1014.3 |
| 20260507083036 | 51 | 38 | 2.0 | 10.0 | 0.00 | 0.33 | 0.00 | 75 | 1014.4 |
| 20260507081543 | 49 | 96 | 3.0 | 11.0 | 0.00 | 0.33 | 0.00 | 76 | 1014.3 |
| 20260507080034 | 49 | 167 | 2.0 | 11.0 | 0.00 | 0.33 | 0.00 | 78 | 1014.2 |
| 20260507074551 | 48 | 76 | 3.0 | 11.0 | 0.00 | 0.37 | 0.00 | 79 | 1014.2 |
| 20260507073037 | 49 | 316 | 3.0 | 10.0 | 0.00 | 0.37 | 0.00 | 80 | 1014.0 |
| 20260507071536 | 48 | 94 | 2.0 | 9.0 | 0.00 | 0.37 | 0.00 | 84 | 1014.0 |
| 20260507070038 | 46 | 66 | 3.0 | 11.0 | 0.00 | 0.37 | 0.00 | 86 | 1013.8 |
| 20260507064534 | 45 | 90 | 2.0 | 10.0 | 0.00 | 0.46 | 0.00 | 88 | 1013.9 |
| 20260507063032 | 45 | 66 | 2.0 | 10.0 | 0.00 | 0.46 | 0.00 | 88 | 1013.7 |
| 20260507061539 | 45 | 99 | 2.0 | 7.0 | 0.00 | 0.46 | 0.00 | 90 | 1013.7 |
| 20260507060039 | 44 | 9 | 1.0 | 9.0 | 0.00 | 0.46 | 0.00 | 91 | 1013.4 |
| 20260507054548 | 44 | 56 | 3.0 | 8.0 | 0.00 | 0.57 | 0.00 | 91 | 1013.5 |
| 20260507053035 | 44 | 148 | 1.0 | 9.0 | 0.00 | 0.57 | 0.00 | 92 | 1013.6 |
| 20260507051532 | 44 | 0 | 1.0 | 7.0 | 0.00 | 0.57 | 0.00 | 92 | 1013.2 |
| 20260507050036 | 44 | 0 | 1.0 | 9.0 | 0.00 | 0.57 | 0.00 | 92 | 1013.1 |
| 20260507044539 | 44 | 65 | 2.0 | 8.0 | 0.00 | 0.65 | 0.00 | 93 | 1012.9 |
| 20260507043035 | 44 | 5 | 1.0 | 9.0 | 0.00 | 0.65 | 0.00 | 93 | 1012.6 |
| 20260507041541 | 44 | 0 | 1.0 | 6.0 | 0.00 | 0.65 | 0.00 | 93 | 1012.5 |
| 20260507040036 | 44 | 0 | 0.0 | 5.0 | 0.00 | 0.65 | 0.00 | 93 | 1012.3 |
| 20260507034530 | 44 | 0 | 0.0 | 5.0 | 0.00 | 0.66 | 0.00 | 93 | 1012.3 |
| 20260507033037 | 44 | 347 | 0.0 | 4.0 | 0.00 | 0.66 | 0.00 | 93 | 1012.1 |
| 20260507031539 | 44 | 67 | 0.0 | 4.0 | 0.00 | 0.66 | 0.00 | 93 | 1012.0 |
| 20260507030047 | 44 | 30 | 1.0 | 6.0 | 0.00 | 0.66 | 0.00 | 93 | 1011.9 |
| 20260507024541 | 44 | 0 | 0.0 | 6.0 | 0.00 | 0.66 | 0.00 | 93 | 1011.8 |
| 20260507023034 | 44 | 87 | 0.0 | 6.0 | 0.00 | 0.66 | 0.00 | 93 | 1011.7 |
| 20260507021539 | 44 | 0 | 0.0 | 5.0 | 0.00 | 0.66 | 0.00 | 93 | 1011.7 |
| 20260507020039 | 44 | 0 | 2.0 | 8.0 | 0.00 | 0.66 | 0.00 | 93 | 1011.5 |
| 20260507014545 | 44 | 0 | 0.0 | 3.0 | 0.00 | 0.66 | 0.00 | 93 | 1011.5 |
| 20260507013038 | 44 | 0 | 1.0 | 5.0 | 0.00 | 0.66 | 0.00 | 93 | 1011.5 |
| 20260507011533 | 44 | 0 | 0.0 | 4.0 | 0.00 | 0.66 | 0.00 | 94 | 1011.1 |
| 20260507010038 | 44 | 84 | 1.0 | 7.0 | 0.00 | 0.66 | 0.00 | 94 | 1010.9 |
| 20260507004536 | 44 | 0 | 1.0 | 6.0 | 0.00 | 0.66 | 0.00 | 94 | 1011.1 |
| 20260507003039 | 44 | 34 | 1.0 | 6.0 | 0.00 | 0.66 | 0.00 | 94 | 1011.0 |
| 20260507001540 | 44 | 0 | 0.0 | 3.0 | 0.00 | 0.66 | 0.00 | 94 | 1010.9 |
| 20260507000040 | 44 | 0 | 0.0 | 8.0 | 0.00 | 0.66 | 0.00 | 94 | 1011.0 |
| 20260506234534 | 43 | 59 | 0.0 | 4.0 | 0.00 | 0.66 | 0.00 | 93 | 1010.7 |
| 20260506233035 | 44 | 44 | 0.0 | 4.0 | 0.00 | 0.66 | 0.00 | 94 | 1010.7 |
| 20260506231538 | 44 | 0 | 1.0 | 9.0 | 0.00 | 0.66 | 0.00 | 93 | 1010.7 |
| 20260506230037 | 44 | 0 | 2.0 | 8.0 | 0.00 | 0.66 | 0.00 | 93 | 1010.4 |
| 20260506224535 | 44 | 19 | 2.0 | 12.0 | 0.00 | 0.66 | 0.00 | 94 | 1010.6 |
| 20260506223036 | 44 | 5 | 1.0 | 9.0 | 0.00 | 0.66 | 0.00 | 94 | 1010.4 |
| 20260506221536 | 44 | 88 | 3.0 | 10.0 | 0.00 | 0.66 | 0.00 | 94 | 1010.6 |
| 20260506220033 | 44 | 62 | 1.0 | 7.0 | 0.00 | 0.66 | 0.00 | 94 | 1010.6 |
| 20260506214532 | 44 | 64 | 1.0 | 6.0 | 0.00 | 0.66 | 0.66 | 94 | 1010.7 |
| 20260506213036 | 44 | 0 | 0.0 | 9.0 | 0.00 | 0.66 | 0.66 | 94 | 1010.5 |
| 20260506211535 | 44 | 35 | 2.0 | 8.0 | 0.00 | 0.66 | 0.66 | 94 | 1010.2 |
| 20260506210034 | 44 | 74 | 2.0 | 9.0 | 0.00 | 0.66 | 0.66 | 94 | 1009.9 |
| 20260506204535 | 44 | 0 | 1.0 | 9.0 | 0.00 | 0.66 | 0.66 | 94 | 1009.9 |
| 20260506203037 | 44 | 0 | 2.0 | 6.0 | 0.00 | 0.66 | 0.66 | 94 | 1010.2 |
| 20260506201536 | 44 | 0 | 0.0 | 4.0 | 0.00 | 0.66 | 0.66 | 94 | 1010.0 |
| 20260506200036 | 44 | 0 | 1.0 | 6.0 | 0.00 | 0.66 | 0.66 | 94 | 1009.9 |
| 20260506194537 | 44 | 44 | 0.0 | 5.0 | 0.00 | 0.66 | 0.66 | 94 | 1009.9 |
| 20260506193033 | 44 | 68 | 2.0 | 5.0 | 0.00 | 0.66 | 0.66 | 94 | 1010.0 |
| 20260506191538 | 44 | 0 | 1.0 | 7.0 | 0.00 | 0.66 | 0.66 | 94 | 1009.9 |
| 20260506190037 | 45 | 65 | 1.0 | 6.0 | 0.00 | 0.66 | 0.66 | 94 | 1009.6 |
| 20260506184534 | 45 | 0 | 0.0 | 5.0 | 0.00 | 0.66 | 0.66 | 95 | 1009.6 |